Location: Moscow
(55.7500°N, 37.5830°E)
Time: 13:24:55
(UTC+03:00)

Vanguard 1 - Pass Details

Date: 08 December 2021
Orbit: 652 x 3830 km, 34.2° (Epoch: 25 January)

Event Time Altitude Azimuth Distance (km) Brightness Sun altitude
Exits shadow 00:56:43 19° 118° (ESE) 5,783 13.8 -56.3°
Drops below altitude 10° 01:00:49 10° 110° (ESE) 6,292 14.1 -56.2°
Sets 01:05:34 0° 103° (ESE) 6,980 14.5 -56.0°
